Wind_Speed
49 46 46 47 47 42 41 42 42 41 41 45 50 60 70 68 63 72 78 72 76 65 68 70 75 66 67 66 64 62 64 62 59 57 55 53 55 52 52 48 47 46 44
56 54 51 51 52 50 47 47 47 46 45 46 50 50 52 60 65 59 70 74 78 65 70 73 69 66 69 65 71 71 61 66 65 65 64 62 59 59 56 54 53 52 51
57 59 61 58 55 56 54 51 50 51 51 50 49 55 49 51 52 57 63 66 70 70 68 69 68 60 63 68 72 72 69 67 63 65 65 64 64 65 63 63 60 59 56
67 66 63 61 61 59 58 57 55 54 55 56 54 53 55 58 62 59 56 60 67 70 67 66 69 70 61 65 66 68 74 76 77 74 72 68 69 68 68 66 62 59 57
72 69 65 63 63 64 63 62 61 60 59 58 58 60 59 57 58 66 67 64 59 57 64 71 70 69 68 70 64 61 64 65 65 63 66 59 58 64 65 67 63 63 59
69 64 60 57 59 61 67 66 65 63 64 65 65 63 62 64 64 63 63 68 72 71 63 64 64 69 68 74 78 76 74 70 70 72 60 64 60 56 55 56 59 62 61
60 60 58 56 57 59 61 68 70 69 72 73 70 69 69 67 68 70 71 67 70 72 75 73 70 68 71 77 79 83 80 78 76 83 80 77 78 77 72 69 65 60 57
59 60 61 61 61 60 59 62 69 75 73 76 76 75 72 73 70 72 75 74 74 74 71 72 76 81 80 76 80 86 85 85 89 87 85 88 84 83 86 85 80 76 73
67 67 67 66 65 65 65 64 64 70 76 79 78 76 76 75 79 78 77 78 78 78 79 78 77 79 81 84 84 86 83 82 84 85 87 86 88 90 87 88 89 88 86
76 75 74 73 71 70 69 69 68 67 69 74 82 86 84 82 83 81 81 83 82 83 82 84 86 85 84 82 81 82 86 87 88 87 86 85 84 86 86 88 88 89 88
84 83 84 83 81 80 78 77 76 74 72 73 73 76 80 80 81 82 85 85 86 86 87 88 90 88 91 90 88 88 89 90 90 88 87 91 94 92 91 92 88 86 86
93 93 92 91 91 90 88 87 85 84 82 81 79 79 78 78 80 83 84 85 88 89 91 90 89 91 93 93 94 96 95 95 95 96 95 93 91 93 96 97 98 98 97
100 100 101 99 99 99 97 94 95 94 91 89 87 88 86 84 83 82 81 83 85 86 91 93 94 94 93 94 96 98 97 99 101 102 100 98 97 99 100 100 101 98 96
109 107 105 105 104 104 104 104 102 101 101 100 98 96 95 92 90 89 88 86 85 87 89 89 93 96 97 98 97 98 99 100 101 101 103 104 105 105 106 106 104 102 102
114 114 113 113 112 112 111 109 108 107 106 105 105 106 104 103 101 98 97 97 94 93 91 90 92 93 95 98 99 101 106 104 105 106 106 107 109 109 110 109 109 108 107
124 123 122 120 118 117 116 115 114 114 111 110 111 110 110 111 111 109 107 105 101 101 100 100 98 94 94 95 95 95 97 101 107 111 111 112 114 114 113 114 114 113 113
117 119 120 120 122 124 124 120 119 120 118 114 112 114 116 117 116 114 113 113 113 110 107 108 107 106 103 101 102 100 100 102 104 106 109 111 111 113 114 114 114 114 117
109 110 113 117 118 118 118 120 120 118 118 118 118 117 116 119 120 120 117 117 118 116 114 114 116 115 114 111 109 108 107 105 105 107 106 108 111 114 114 114 114 113 111
103 106 109 111 111 112 113 115 116 118 119 122 123 122 121 121 124 124 122 122 123 124 124 123 123 120 121 122 120 118 117 115 112 111 110 111 113 112 111 111 112 112 110
97 100 102 106 107 108 109 109 109 111 113 116 117 120 125 126 126 126 127 127 127 126 126 125 125 127 128 129 129 126 122 123 121 120 120 117 118 117 117 115 114 113 112
91 95 96 100 103 105 106 106 108 110 112 114 116 118 119 123 127 129 130 131 132 132 132 130 130 132 135 135 134 133 131 131 129 128 127 127 125 122 123 121 120 120 120
88 91 92 93 97 100 102 101 102 107 110 112 113 115 117 118 121 123 124 126 127 128 127 127 127 127 130 131 132 132 132 131 132 132 132 132 131 130 129 129 128 127 126
90 88 90 93 95 97 97 98 100 103 106 108 110 112 114 116 118 119 121 121 122 123 124 124 124 125 126 126 129 129 130 130 130 131 132 132 136 135 136 135 134 135 134
93 89 87 87 90 93 95 96 98 101 104 107 108 110 112 113 115 116 117 117 118 119 120 121 121 122 122 122 124 126 128 128 127 126 131 131 134 132 134 137 140 141 140
91 90 89 89 90 91 92 93 95 97 99 101 103 105 107 108 110 112 111 113 113 114 115 115 116 117 118 120 121 122 123 124 124 124 127 126 128 130 133 136 139 142 145
92 93 94 95 96 98 100 101 103 105 107 109 112 113 114 114 114 114 113 113 112 114 113 113 112 112 112 112 114 115 118 119 120 120 123 122 122 125 125 130 133 137 139
Wind_Direction
263 267 263 262 258 253 249 248 250 248 242 239 242 241 241 239 241 244 240 245 241 252 241 243 246 245 238 243 240 243 251 251 251 251 248 252 254 257 258 255 255 256 258
268 270 265 262 258 256 252 247 246 247 244 243 242 244 243 241 240 241 240 242 241 246 250 251 249 248 239 243 243 245 246 245 250 247 253 257 254 255 258 254 258 260 260
264 264 268 263 261 256 254 250 248 245 243 244 242 236 237 236 233 242 240 238 240 240 245 248 252 244 246 247 245 243 242 246 248 252 253 252 251 256 256 253 258 261 261
265 266 264 260 258 257 256 253 248 250 247 243 242 242 241 237 231 231 237 243 239 237 238 242 242 240 241 244 249 247 247 248 251 250 253 253 254 254 255 254 256 259 259
266 265 261 258 256 253 253 254 254 250 247 247 245 243 243 244 241 239 235 234 236 239 238 240 240 243 238 239 244 244 247 249 246 252 248 244 251 252 255 253 257 254 257
262 259 255 253 255 253 251 251 251 254 251 249 249 248 247 245 242 242 243 243 243 240 237 238 240 237 232 233 237 235 239 233 237 239 242 241 247 245 246 248 248 249 254
254 253 253 254 254 255 252 253 249 250 252 253 250 250 251 249 247 244 244 244 243 246 246 240 235 234 237 236 233 235 235 234 236 238 242 240 241 239 239 243 244 241 244
253 252 255 258 259 258 256 253 254 250 250 252 253 255 254 251 250 250 245 245 245 243 243 244 246 243 241 240 238 239 237 239 238 236 236 239 239 242 240 240 240 238 238
254 253 256 256 259 262 259 256 253 251 252 251 254 254 255 255 255 251 249 249 246 246 246 245 243 244 246 247 244 238 239 240 241 244 243 243 245 246 246 245 246 246 245
255 255 256 256 257 258 259 260 260 258 255 254 253 252 255 255 257 253 254 251 248 247 247 247 246 244 244 245 246 246 246 246 245 244 241 243 246 246 248 249 250 250 250
254 255 255 255 256 256 257 259 260 259 259 258 257 255 253 253 253 253 253 251 250 250 249 248 248 247 246 246 247 247 247 247 249 251 252 249 249 251 249 246 245 247 247
254 253 253 254 256 256 257 257 258 259 260 260 258 257 258 257 256 255 253 252 252 250 249 249 250 249 248 248 247 248 249 249 249 250 249 250 251 252 253 254 254 251 250
256 255 255 255 256 256 257 257 256 256 257 257 258 260 259 258 258 256 256 255 255 253 251 249 249 250 251 249 249 249 250 250 250 250 251 251 252 252 253 254 255 254 255
256 257 257 256 255 255 256 256 258 257 256 257 258 260 260 259 259 259 258 257 258 257 254 252 252 251 250 250 249 250 248 249 250 251 251 251 252 252 253 253 253 253 253
258 258 258 257 256 256 256 256 257 257 256 256 256 256 257 259 260 260 259 259 259 259 257 256 254 253 253 252 252 252 251 250 252 252 252 253 254 254 254 254 254 253 254
261 260 260 259 259 258 258 258 260 258 256 256 256 256 256 256 257 259 260 260 260 259 259 257 256 255 256 254 254 253 254 253 253 253 254 254 254 254 255 255 255 256 256
260 260 260 260 259 259 260 260 259 259 258 258 258 259 258 256 256 257 258 259 260 262 260 260 258 258 256 255 254 254 254 254 254 254 255 255 255 255 256 256 257 257 257
259 258 258 258 258 257 258 258 258 257 257 256 257 257 258 257 257 257 258 258 259 261 262 260 261 260 259 259 259 257 255 254 255 255 255 255 255 255 256 256 256 256 256
257 257 258 258 257 257 258 258 257 257 256 257 257 257 257 256 256 257 257 257 258 259 259 260 260 259 259 260 260 259 257 255 254 255 255 255 255 256 255 255 255 255 255
256 255 256 257 257 257 257 257 258 257 257 256 256 256 256 256 257 257 257 258 259 258 259 259 259 259 259 259 259 259 257 256 255 256 255 254 255 254 255 255 255 255 255
258 257 256 256 256 256 256 256 256 256 256 256 255 256 256 256 256 257 257 258 259 258 258 259 259 259 258 257 256 256 255 255 255 254 255 254 254 254 253 254 255 255 255
260 258 256 256 256 255 256 255 256 256 256 257 258 258 258 259 258 258 258 258 258 257 257 257 257 257 257 256 256 255 254 254 254 255 252 251 252 252 253 252 252 253 254
259 259 257 256 256 256 256 256 255 255 255 256 256 257 257 258 258 258 258 258 258 258 257 257 257 256 256 257 257 256 255 254 254 255 255 252 251 251 251 252 252 252 253
258 258 257 256 256 256 257 256 256 256 256 256 257 257 257 257 257 257 258 258 258 258 258 258 258 258 257 257 257 257 257 256 255 255 254 253 251 250 250 250 251 251 252
256 257 258 258 258 258 258 257 257 257 258 258 258 259 259 259 259 258 259 259 259 259 259 259 259 258 257 257 257 256 256 256 256 255 254 253 253 253 253 251 251 251 252
257 258 259 260 260 261 261 261 261 261 261 261 261 261 260 260 260 260 260 260 260 260 260 260 260 259 258 257 257 256 255 256 257 257 256 254 253 254 252 253 253 254 253
Height
10677 10679 10681 10683 10684 10686 10688 10690 10692 10693 10695 10697 10699 10703 10709 10714 10720 10723 10729 10735 10740 10744 10749 10756 10763 10767 10770 10776 10782 10784 10787 10789 10794 10798 10802 10806 10811 10814 10817 10821 10823 10826 10829
10664 10666 10669 10672 10674 10675 10677 10679 10681 10684 10686 10688 10690 10693 10697 10701 10707 10712 10717 10723 10729 10735 10736 10743 10749 10753 10757 10764 10768 10772 10775 10778 10783 10787 10791 10795 10801 10805 10808 10811 10813 10816 10820
10649 10651 10654 10657 10660 10663 10665 10666 10669 10672 10675 10678 10681 10684 10687 10691 10695 10699 10703 10709 10714 10722 10725 10728 10735 10741 10743 10749 10753 10758 10763 10767 10772 10775 10778 10783 10787 10793 10797 10800 10802 10805 10809
10632 10635 10637 10641 10645 10648 10651 10654 10656 10659 10662 10665 10669 10673 10676 10680 10684 10688 10691 10694 10700 10707 10711 10715 10720 10728 10731 10736 10738 10742 10750 10754 10758 10762 10766 10772 10774 10780 10783 10788 10791 10795 10798
10616 10617 10620 10623 10627 10631 10635 10638 10641 10645 10648 10651 10655 10659 10662 10666 10671 10675 10678 10682 10686 10690 10696 10700 10706 10713 10718 10722 10726 10729 10735 10740 10745 10749 10753 10758 10760 10766 10771 10774 10779 10782 10786
10598 10601 10603 10605 10609 10612 10617 10621 10625 10628 10632 10635 10640 10644 10648 10652 10656 10660 10665 10667 10670 10675 10682 10687 10691 10697 10702 10706 10711 10715 10721 10727 10732 10738 10740 10742 10744 10750 10755 10759 10763 10768 10773
10582 10585 10588 10591 10594 10596 10599 10602 10607 10611 10614 10618 10623 10627 10632 10636 10641 10645 10649 10652 10657 10659 10664 10671 10676 10680 10687 10691 10694 10698 10703 10708 10713 10722 10728 10728 10730 10738 10742 10746 10750 10755 10759
10568 10571 10573 10576 10578 10580 10582 10585 10588 10591 10595 10599 10604 10608 10613 10618 10624 10627 10631 10635 10640 10644 10648 10653 10658 10663 10668 10673 10679 10682 10686 10690 10697 10703 10707 10710 10713 10718 10725 10729 10733 10740 10744
10551 10553 10555 10558 10561 10564 10566 10568 10571 10574 10577 10581 10585 10589 10594 10602 10599 10608 10612 10617 10622 10626 10630 10635 10640 10644 10650 10654 10660 10664 10668 10673 10676 10683 10688 10691 10694 10700 10707 10714 10718 10723 10727
10533 10535 10538 10540 10542 10545 10548 10551 10553 10556 10559 10562 10567 10571 10575 10580 10583 10586 10591 10597 10602 10607 10611 10615 10620 10625 10631 10635 10640 10644 10648 10652 10657 10662 10669 10674 10677 10681 10688 10694 10699 10703 10706
10513 10515 10517 10519 10522 10525 10528 10531 10534 10537 10540 10543 10547 10551 10554 10558 10562 10566 10570 10576 10579 10585 10589 10594 10599 10603 10608 10614 10620 10623 10628 10632 10636 10641 10647 10654 10658 10662 10668 10673 10677 10682 10687
10488 10491 10494 10497 10500 10503 10506 10510 10514 10517 10521 10524 10527 10531 10535 10538 10542 10545 10549 10553 10556 10563 10566 10572 10577 10582 10586 10592 10598 10602 10606 10611 10616 10621 10625 10631 10638 10643 10643 10648 10655 10663 10668
10462 10465 10469 10473 10476 10479 10483 10487 10491 10495 10499 10503 10507 10510 10514 10518 10521 10525 10528 10532 10533 10539 10543 10549 10554 10558 10563 10569 10575 10578 10583 10587 10592 10597 10602 10609 10615 10618 10622 10627 10633 10639 10645
10433 10437 10441 10446 10451 10454 10458 10461 10466 10470 10474 10478 10482 10487 10491 10495 10499 10503 10507 10510 10513 10516 10520 10526 10529 10534 10539 10544 10551 10553 10559 10564 10568 10573 10578 10584 10590 10594 10599 10603 10609 10615 10622
10402 10406 10410 10415 10419 10425 10429 10433 10437 10441 10447 10452 10457 10461 10465 10469 10472 10477 10481 10486 10490 10493 10496 10501 10504 10509 10514 10518 10523 10527 10534 10538 10543 10548 10554 10558 10563 10568 10572 10577 10584 10590 10596
10368 10373 10377 10382 10385 10393 10399 10404 10409 10414 10419 10423 10428 10433 10437 10440 10443 10448 10453 10458 10463 10468 10472 10473 10481 10486 10489 10493 10497 10501 10506 10510 10515 10520 10526 10531 10535 10540 10544 10549 10555 10561 10567
10334 10337 10341 10346 10350 10358 10363 10370 10377 10382 10388 10392 10396 10401 10406 10411 10414 10419 10423 10427 10432 10437 10445 10444 10451 10456 10463 10468 10473 10476 10479 10482 10485 10490 10496 10500 10505 10510 10515 10520 10525 10531 10537
10301 10305 10308 10311 10315 10322 10328 10335 10341 10346 10351 10357 10362 10368 10374 10379 10383 10387 10392 10395 10400 10404 10411 10415 10416 10423 10431 10436 10442 10448 10451 10454 10457 10460 10466 10471 10474 10479 10485 10491 10496 10501 10506
10271 10274 10277 10279 10284 10290 10295 10300 10306 10312 10318 10324 10330 10334 10340 10345 10349 10354 10359 10363 10367 10371 10377 10384 10383 10388 10393 10398 10406 10414 10420 10424 10428 10431 10435 10440 10444 10449 10456 10461 10466 10471 10475
10243 10246 10248 10250 10254 10258 10263 10268 10274 10278 10283 10289 10295 10300 10304 10308 10312 10318 10324 10328 10332 10337 10342 10348 10353 10350 10356 10360 10367 10374 10382 10388 10394 10398 10402 10407 10411 10418 10424 10429 10436 10440 10444
10214 10215 10220 10222 10225 10228 10232 10238 10241 10245 10248 10252 10257 10262 10266 10271 10275 10280 10286 10289 10294 10298 10303 10309 10314 10317 10314 10319 10325 10333 10341 10345 10353 10359 10367 10370 10378 10386 10392 10397 10401 10405 10410
10186 10188 10191 10194 10196 10199 10201 10207 10212 10215 10217 10220 10223 10228 10232 10236 10238 10241 10245 10250 10253 10258 10263 10268 10273 10279 10279 10280 10284 10290 10298 10307 10313 10316 10324 10335 10339 10348 10355 10360 10366 10371 10376
10159 10161 10163 10166 10168 10170 10173 10178 10181 10184 10185 10187 10191 10194 10198 10200 10202 10205 10208 10212 10216 10218 10224 10229 10235 10239 10244 10245 10246 10253 10255 10265 10273 10277 10282 10297 10297 10310 10315 10322 10328 10331 10339
10132 10135 10138 10139 10140 10142 10145 10148 10151 10153 10153 10154 10158 10161 10164 10165 10167 10171 10173 10175 10178 10183 10186 10191 10198 10202 10206 10211 10212 10211 10215 10225 10235 10239 10238 10252 10255 10269 10276 10283 10287 10292 10299
10106 10108 10110 10112 10114 10115 10117 10120 10122 10123 10123 10124 10127 10128 10129 10131 10130 10135 10140 10140 10144 10146 10148 10153 10159 10165 10168 10171 10174 10177 10179 10182 10191 10198 10199 10212 10219 10231 10236 10242 10247 10251 10258
10080 10082 10084 10085 10086 10086 10088 10091 10092 10094 10094 10095 10095 10095 10096 10098 10098 10101 10105 10107 10110 10109 10114 10119 10123 10126 10129 10132 10135 10139 10143 10149 10153 10161 10158 10171 10182 10187 10199 10204 10209 10210 10218